[[{"header":{"parameterUnit":"m.s-1","parameterCategory":1,"la1":30.2991,"la2":30.254,"lo1":-89.0895,"lo2":-89.0444,"dy":0.0017,"dx":0.0017,"nx":28,"ny":28,"refTime":"2026-02-15T03:00:00:Z","depth":0,"parameterNumber":2,"parameterNumberName":"U-component_of_WINDS"},"data":[0,0,0,0,0,0,0,0,0,0,0,0,0,0,0,0,0,0,0,0,0,0,0,0,0,0,0,0,0,0,0,0,0,0,0,0,0,0,0,0,0,0,0,0,0,0,0,0,0,0,0,0,0,0,0,0,0,0,2.1242,2.1242,0,2.1277,2.1277,2.1278,2.1259,2.1258,2.1258,2.1257,2.1293,2.1294,2.1296,0,0,0,0,0,0,0,0,0,0,0,0,0,2.1161,2.1162,2.1242,2.1242,2.1243,2.1277,2.1277,2.1278,2.126,2.1258,2.1257,2.1256,2.1292,2.1294,2.1296,0,0,0,0,0,0,0,0,0,0,0,0,0,2.1196,2.1163,2.1242,2.1238,2.1238,2.1277,2.1277,2.1278,2.126,2.1258,2.1257,2.1256,2.1291,2.1294,2.1297,2.1341,0,0,2.1305,2.1306,0,0,0,0,0,0,0,0,2.1194,2.1199,2.1238,2.1238,2.1238,2.1262,2.1262,2.1299,2.126,2.1251,2.1257,2.1255,2.1284,2.1287,2.1297,2.1343,2.1345,2.1305,2.1307,2.1308,2.1309,0,0,0,0,0,0,0,2.1191,2.1197,2.1256,2.1238,2.1239,2.1235,2.1238,2.1269,2.1275,2.1252,2.1251,2.1255,2.1283,2.1294,2.1297,2.1345,2.1305,2.1308,2.1309,2.131,2.1433,2.1435,0,0,0,0,0,0,2.1189,2.1195,2.1254,2.1257,2.1212,2.1237,2.1241,2.1256,2.1275,2.1276,2.1256,2.1254,2.129,2.1294,2.1298,2.1354,2.1308,2.1311,2.1312,2.1431,2.1433,2.1435,0,0,0,0,0,0,2.1187,2.1195,2.1253,2.1226,2.1233,2.124,2.1257,2.1257,2.1268,2.1278,2.1279,2.1266,2.1289,2.1295,2.1331,2.1355,2.1312,2.1314,2.143,2.1432,2.1434,2.1464,0,0,0,0,0,0,2.1185,2.1194,2.1211,2.1226,2.1234,2.1285,2.1258,2.1259,2.1273,2.127,2.1287,2.1288,2.1288,2.1328,2.1334,2.1358,2.1316,2.1427,2.1431,2.1434,2.1461,2.1467,2.1472,0,0,0,0,0,2.1182,2.1217,2.1211,2.1219,2.1255,2.1286,2.1291,2.129,2.1274,2.1292,2.1299,2.1288,2.1351,2.1331,2.1339,2.1363,2.1426,2.143,2.1433,2.1458,2.1465,2.1472,0,0,0,0,0,0,2.1203,2.1219,2.1213,2.1253,2.1269,2.1283,2.1304,2.1298,2.1318,2.1314,2.1313,2.1317,2.1355,2.1363,2.1341,2.1409,2.1386,2.1392,2.1402,2.141,2.1415,2.1413,2.1319,0,0,0,0,0,2.1213,2.1236,2.1249,2.1283,2.1291,2.1297,2.131,2.1309,2.1324,2.1331,2.134,2.1356,2.138,2.1395,2.1417,2.1462,2.1466,2.1483,2.1488,2.1493,2.1497,2.1524,2.1532,2.1447,2.1447,2.1447,0,0,2.1232,2.1243,2.1258,2.1288,2.1299,2.1325,2.1302,2.1329,2.1349,2.1335,2.137,2.1378,2.1396,2.1438,2.1456,2.1445,2.1522,2.1498,2.1501,2.1503,2.1528,2.1536,2.1543,2.145,2.1449,2.1449,0,0,2.128,2.1291,2.1322,2.1335,2.1353,2.1357,2.1364,2.138,2.1385,2.1421,2.1412,2.1435,2.1475,2.1489,2.1501,2.1558,2.1549,2.1565,2.1595,2.162,2.1627,2.1633,2.1654,2.1662,2.157,2.157,2.157,0,2.1302,2.1339,2.1339,2.1367,2.1381,2.1371,2.1403,2.1415,2.144,2.145,2.1437,2.1489,2.15,2.1546,2.156,2.157,2.1579,2.1563,2.1626,2.1632,2.1637,2.1658,2.1666,2.1572,2.1571,2.1571,2.1571,0,2.1366,2.1392,2.1415,2.144,2.1457,2.1487,2.1492,2.1509,2.1506,2.1512,2.155,2.1563,2.1589,2.1599,2.1597,2.1645,2.1638,2.1626,2.1603,2.1647,2.1667,2.1674,2.1574,2.1574,2.1573,2.1573,0,0,2.1427,2.1453,2.1461,2.1473,2.1494,2.1514,2.1545,2.1571,2.1586,2.1604,2.163,2.1666,2.1655,2.1669,2.1669,2.1691,2.1737,2.1676,2.1677,2.1688,2.1793,2.1803,2.1812,2.1732,2.1733,2.1735,2.1792,0,2.1477,2.1531,2.1532,2.1581,2.1606,2.1598,2.1625,2.1641,2.1648,2.1671,2.1678,2.1704,2.1688,2.1696,2.1718,2.1727,2.1758,2.1723,2.1757,2.1759,2.1753,2.1822,2.1831,2.1885,2.18,2.1801,2.1802,0,2.1543,2.1564,2.1616,2.1635,2.1646,2.167,2.1695,2.1716,2.1735,2.1739,2.1756,2.1752,2.1785,2.1761,2.1807,2.1783,2.1797,2.1804,2.1806,2.181,2.1783,2.1827,2.1902,2.191,2.1813,2.1813,2.1812,0,2.1584,2.1625,2.1662,2.1672,2.1695,2.1713,2.1723,2.1741,2.1757,2.1779,2.1789,2.1815,2.1829,2.1849,2.1853,2.1835,2.1899,2.1876,2.1904,2.1904,2.1917,2.1917,2.1996,2.1926,2.1926,2.1926,2.1926,0,2.164,2.1672,2.1681,2.1703,2.174,2.1742,2.1778,2.1788,2.1804,2.1829,2.1823,2.1847,2.1851,2.1876,2.188,2.1918,2.1924,2.1929,2.1929,2.1929,2.1929,2.1939,2.1935,2.1928,2.1928,2.1927,2.1927,0,2.1691,2.1698,2.1738,2.1757,2.1763,2.1789,2.1806,2.1828,2.1835,2.1867,2.1875,2.1886,2.1915,2.1922,2.1956,2.1959,2.2005,2.2001,2.1998,2.1998,2.2027,2.2024,2.2115,2.2128,2.2049,2.205,2.2051,0,2.1727,2.1752,2.1774,2.1791,2.1802,2.1829,2.1846,2.1849,2.1867,2.1892,2.1912,2.1941,2.1964,2.2013,2.2024,2.2051,2.2049,2.2079,2.2053,2.2053,2.2051,2.2049,2.2053,2.2084,2.2085,2.2085,2.2086,0,2.179,2.1792,2.1817,2.1843,2.1864,2.1884,2.1904,2.1918,2.1925,2.1946,2.1976,2.1994,2.2031,2.2061,2.2088,2.21,2.2095,2.2094,2.2103,2.2103,2.2101,2.2104,2.2013,2.2092,2.2091,2.2091,2.2091,2.209,2.1835,2.1857,2.1877,2.1905,2.1921,2.194,2.1963,2.1973,2.1999,2.2029,2.203,2.2063,2.2084,2.2121,2.2134,2.2162,2.2152,2.2164,2.2167,2.217,2.2173,2.2096,2.2167,2.2166,2.2166,2.2166,2.2166,0,2.1898,2.1911,2.1937,2.1966,2.1988,2.1982,2.2004,2.2023,2.2053,2.2073,2.2097,2.2133,2.2162,2.2177,2.2206,2.2225,2.2224,2.2233,2.2232,2.2235,2.2179,2.2169,2.2234,2.2234,2.2234,2.2234,2.2234,2.2234,2.1934,2.1972,2.1978,2.2025,2.2038,2.2071,2.2084,2.2103,2.2119,2.2159,2.2184,2.2193,2.2212,2.2243,2.227,2.2274,2.2285,2.2296,2.2298,2.2246,2.2239,2.2232,2.2223,2.2298,2.2298,2.2352,2.2353,2.2353]},{"header":{"parameterUnit":"m.s-1","parameterCategory":1,"la1":30.2991,"la2":30.254,"lo1":-89.0895,"lo2":-89.0444,"dy":0.0017,"dx":0.0017,"nx":28,"ny":28,"refTime":"2026-02-15T03:00:00:Z","depth":0,"parameterNumber":3,"parameterNumberName":"V-component_of_WINDS"},"data":[0,0,0,0,0,0,0,0,0,0,0,0,0,0,0,0,0,0,0,0,0,0,0,0,0,0,0,0,0,0,0,0,0,0,0,0,0,0,0,0,0,0,0,0,0,0,0,0,0,0,0,0,0,0,0,0,0,0,-5.9332,-5.9333,0,-5.944,-5.9441,-5.9442,-5.9418,-5.9416,-5.9414,-5.9412,-5.9516,-5.9521,-5.9525,0,0,0,0,0,0,0,0,0,0,0,0,0,-5.91,-5.9104,-5.9332,-5.9333,-5.9334,-5.944,-5.9441,-5.9442,-5.9419,-5.9416,-5.9414,-5.9411,-5.9515,-5.952,-5.9526,0,0,0,0,0,0,0,0,0,0,0,0,0,-5.9203,-5.9105,-5.9331,-5.9335,-5.9337,-5.9439,-5.9441,-5.9443,-5.9419,-5.9416,-5.9413,-5.941,-5.9513,-5.952,-5.9527,-5.963,0,0,-5.9548,-5.9551,0,0,0,0,0,0,0,0,-5.9197,-5.9212,-5.9333,-5.9335,-5.9337,-5.9413,-5.9397,-5.9505,-5.942,-5.9388,-5.9412,-5.9409,-5.9484,-5.9493,-5.952,-5.9635,-5.9639,-5.9548,-5.9553,-5.9556,-5.9558,0,0,0,0,0,0,0,-5.919,-5.9207,-5.9374,-5.9335,-5.9337,-5.933,-5.9341,-5.9418,-5.9451,-5.939,-5.9389,-5.9402,-5.9484,-5.9513,-5.9522,-5.9641,-5.9548,-5.9554,-5.9559,-5.9561,-5.9847,-5.985,0,0,0,0,0,0,-5.9182,-5.9201,-5.9371,-5.9377,-5.9259,-5.9337,-5.9349,-5.9391,-5.945,-5.9456,-5.9405,-5.9401,-5.9503,-5.9514,-5.9525,-5.9651,-5.9556,-5.9562,-5.9566,-5.9844,-5.9848,-5.9851,0,0,0,0,0,0,-5.9177,-5.9198,-5.9366,-5.9289,-5.931,-5.9344,-5.9391,-5.9395,-5.9424,-5.9461,-5.9466,-5.9428,-5.9501,-5.9516,-5.9605,-5.9654,-5.9565,-5.9571,-5.984,-5.9845,-5.985,-5.9903,0,0,0,0,0,0,-5.9171,-5.9196,-5.9236,-5.929,-5.9314,-5.9446,-5.9394,-5.9399,-5.9437,-5.9433,-5.9485,-5.9491,-5.9499,-5.9595,-5.9612,-5.9662,-5.9577,-5.9835,-5.9842,-5.9848,-5.9897,-5.9909,-5.992,0,0,0,0,0,-5.9162,-5.9245,-5.9239,-5.9259,-5.9366,-5.9449,-5.9462,-5.9473,-5.9441,-5.9481,-5.9506,-5.9489,-5.9646,-5.9604,-5.9623,-5.9676,-5.9832,-5.984,-5.9847,-5.9892,-5.9907,-5.9919,0,0,0,0,0,0,-5.9193,-5.9252,-5.9246,-5.9349,-5.9394,-5.9444,-5.9496,-5.9488,-5.9541,-5.9535,-5.9544,-5.9556,-5.9647,-5.967,-5.9622,-5.978,-5.9734,-5.9746,-5.9761,-5.9776,-5.9787,-5.9779,-5.9583,0,0,0,0,0,-5.9213,-5.9277,-5.9324,-5.941,-5.9434,-5.9461,-5.9497,-5.9502,-5.9548,-5.9567,-5.9597,-5.9641,-5.9701,-5.974,-5.9796,-5.99,-5.9911,-5.9946,-5.9958,-5.9967,-5.9977,-6.0035,-6.0051,-5.9877,-5.9877,-5.9876,0,0,-5.9252,-5.9292,-5.9332,-5.9418,-5.9453,-5.9518,-5.9477,-5.9547,-5.9595,-5.9576,-5.9664,-5.9688,-5.9737,-5.9835,-5.9879,-5.9857,-6.0028,-5.9977,-5.9984,-5.9989,-6.0044,-6.0061,-6.0075,-5.9882,-5.9881,-5.988,0,0,-5.9358,-5.9395,-5.9472,-5.9509,-5.9565,-5.9583,-5.9602,-5.9654,-5.9671,-5.9759,-5.9747,-5.9803,-5.9905,-5.9942,-5.9973,-6.0096,-6.0082,-6.0114,-6.0173,-6.0229,-6.0243,-6.0255,-6.0299,-6.0315,-6.0123,-6.0124,-6.0124,0,-5.9399,-5.9499,-5.9511,-5.9584,-5.9622,-5.9611,-5.9689,-5.9724,-5.9794,-5.982,-5.9795,-5.9925,-5.9957,-6.0064,-6.0094,-6.012,-6.0141,-6.0107,-6.0241,-6.0253,-6.0264,-6.0306,-6.0323,-6.0127,-6.0127,-6.0126,-6.0126,0,-5.9547,-5.9616,-5.9671,-5.9744,-5.9788,-5.9862,-5.9885,-5.9928,-5.9929,-5.9949,-6.0039,-6.0079,-6.0144,-6.0169,-6.017,-6.0276,-6.0261,-6.0239,-6.0193,-6.0284,-6.0324,-6.034,-6.0132,-6.0131,-6.013,-6.0129,0,0,-5.9673,-5.9754,-5.9774,-5.9807,-5.987,-5.9922,-5.9996,-6.0063,-6.01,-6.0149,-6.0211,-6.0299,-6.0279,-6.0315,-6.032,-6.0369,-6.0464,-6.034,-6.0342,-6.0362,-6.0585,-6.0602,-6.062,-6.0456,-6.0459,-6.0462,-6.0581,0,-5.9785,-5.9918,-5.9933,-6.005,-6.0115,-6.0107,-6.0171,-6.0216,-6.0237,-6.0293,-6.0315,-6.0378,-6.0347,-6.0369,-6.0418,-6.0443,-6.0509,-6.0434,-6.0513,-6.0515,-6.0501,-6.0641,-6.0659,-6.0769,-6.0596,-6.0599,-6.0601,0,-5.9932,-5.999,-6.0115,-6.0171,-6.0198,-6.0256,-6.0319,-6.0373,-6.0423,-6.0435,-6.0478,-6.0476,-6.0551,-6.0504,-6.0607,-6.0556,-6.0588,-6.0606,-6.061,-6.0617,-6.0563,-6.0652,-6.0804,-6.0821,-6.0625,-6.0623,-6.0622,0,-6.0013,-6.0121,-6.0211,-6.0239,-6.0306,-6.0347,-6.0376,-6.0424,-6.0463,-6.0518,-6.0544,-6.0605,-6.0639,-6.0686,-6.0701,-6.0664,-6.0803,-6.0756,-6.0815,-6.0814,-6.0844,-6.0841,-6.1003,-6.0865,-6.0865,-6.0864,-6.0864,0,-6.0136,-6.0213,-6.0248,-6.0303,-6.0389,-6.0405,-6.0489,-6.0516,-6.0559,-6.0618,-6.0613,-6.0668,-6.0685,-6.0743,-6.0755,-6.0839,-6.0854,-6.0865,-6.0867,-6.0865,-6.0864,-6.0887,-6.0879,-6.0869,-6.0868,-6.0867,-6.0866,0,-6.024,-6.0267,-6.0364,-6.042,-6.0436,-6.0497,-6.0545,-6.0597,-6.0619,-6.0693,-6.0712,-6.0745,-6.0813,-6.0833,-6.0913,-6.0921,-6.102,-6.1015,-6.1004,-6.1004,-6.1061,-6.1056,-6.1243,-6.1269,-6.1114,-6.1115,-6.1116,0,-6.0316,-6.0376,-6.044,-6.0481,-6.0513,-6.0578,-6.062,-6.0638,-6.0681,-6.0744,-6.0789,-6.0857,-6.0912,-6.102,-6.105,-6.1112,-6.1109,-6.117,-6.1118,-6.1115,-6.111,-6.1106,-6.1113,-6.118,-6.1181,-6.1183,-6.1184,0,-6.045,-6.0461,-6.0523,-6.059,-6.0641,-6.0693,-6.0744,-6.0777,-6.0802,-6.085,-6.0922,-6.0965,-6.1049,-6.1116,-6.118,-6.1208,-6.12,-6.12,-6.1217,-6.1216,-6.1207,-6.1213,-6.1031,-6.1196,-6.1194,-6.1194,-6.1193,-6.1192,-6.0543,-6.0597,-6.0651,-6.072,-6.0761,-6.0809,-6.0862,-6.0892,-6.0952,-6.1024,-6.103,-6.1107,-6.1156,-6.1242,-6.1273,-6.1332,-6.1314,-6.1338,-6.1344,-6.135,-6.1355,-6.1199,-6.1344,-6.1343,-6.1343,-6.1343,-6.1342,0,-6.0677,-6.0713,-6.0776,-6.0849,-6.0904,-6.0895,-6.0951,-6.0996,-6.1065,-6.1113,-6.1169,-6.1251,-6.1317,-6.1353,-6.1418,-6.1459,-6.1457,-6.1475,-6.1472,-6.1479,-6.1367,-6.1347,-6.1476,-6.1476,-6.1476,-6.1476,-6.1476,-6.1476,-6.0753,-6.0844,-6.0862,-6.0972,-6.1006,-6.1084,-6.1117,-6.1161,-6.12,-6.1293,-6.1349,-6.1373,-6.1416,-6.1485,-6.1545,-6.1554,-6.1578,-6.1598,-6.1605,-6.15,-6.1486,-6.1473,-6.1454,-6.1603,-6.1604,-6.1711,-6.1712,-6.1713]}]]